Starlink 2408

operational
NORAD ID: 47823 Int'l Des: 2021-018 Owner: SPXS Country: US Constellation: starlink
LEOCIRCULARSTARLINK_TYPE

About Starlink 2408

Description loading...

Live Position

Loading 3D Globe...

Upcoming Passes

Altitude History

Altitude vs Time

uPlot chart will show altitude changes over time

Two-Line Element Set

1 47823U 21018AN 26018.97283941 -.00001739 00000-0 -97916-4 0 9994
2 47823 53.0539 114.7979 0001323 86.8376 273.2764 15.06395153269103
Epoch: Jan 18, 2026 • Age: 12 hours

Current Status

Altitude 566.3 km
Velocity 7.58 km/s
Sub-Earth Point -52.30°S, 102.3°E
Launch Date Mar 11, 2021
Age 4.8 years
Type internet

Technical Details

Classification Payload
Mass 260.00 kg
Dry Mass 248.00 kg
Total Mass 260.00 kg
Length 0.20 m
Diameter 2.80 m
Span 9.00 m
Shape Box + pan
Manufacturer SPXS
Bus Type Starlink
Phase Status In Orbit
Owner/State SPXS/US

Large Constellations

Loading constellations...